TJS-2

Last updated on Wed Sep 09 2026 00:03:01 GMT+0000 (Coordinated Universal Time)

1 41911U 17001A 26251.45825322 -.00000028 00000+0 00000+0 0 9991 2 41911 1.0417 84.0397 0001831 147.0683 347.9604 1.00272973 35556
UTC large
Height (km)
Speed (km/s)
/
Latitude / Longitude
Inclination (degrees)
Orbital Period (minutes)
Azimuth
Elevation
Range (km)
Doppler Factor

Next 0 passes for location: London (51.5072 / 0.1276)

No passes found over London.
TJS-2